カタログに戻る

STARLINK-30313

運用中通信VLEO
NORAD 57676·PAYLOAD·🇺🇸 United States

打ち上げ Aug 22, 2023 から Vandenberg Space Force Base

Loading…

次のパス (今後24時間)

TLE

最新Source: CelesTrak SupGP

元期: Sep 14, 2026, 22:11 UTC

1 57676C 23124P   26257.92479167  .00031633  00000+0  93492-3 0  2572
2 57676  53.1603  47.4478 0001104  75.7434  36.0863 15.34364455    18

AllMySatでSTARLINK-30313をリアルタイム追跡

Download on the App Store